Torna al catalogo

COSMOS 1754

AttivoNavigazioneLEO
NORAD 16764·PAYLOAD·🇷🇺 Russia

Lanciato Jun 6, 1986 da Plesetsk Cosmodrome

Loading…

Prossimi Passaggi (prossime 24 ore)

TLE

AggiornatoSource: Space-Track

Epoca: Sep 14, 2026, 08:28 UTC

1 16764U 86042G   26257.35340211 -.00000008  00000-0  54711-4 0  9996
2 16764  74.0154 108.3090 0020786 237.9877 295.5520 12.52612469666255

Traccia COSMOS 1754 in tempo reale con AllMySat

Download on the App Store